Patrick Lal

Scout - Lautoka
3 Apr 2027
Samstag
Verarbeitung

Persönlichkeit

Anpassungsfähigkeit (1) Ehrgeiz (4) Kontroverse (13) Loyalität (16) Druck (8) Professionalität (8) Fairness (8) Temperament (12)

Profil

Trainerstil Demokratisch
Lizenz Kontinentale B
Entschlossenheit 2
Menschenführung 7
Motivation 3
Disziplin 1
Arbeitszufriedenheit
66%
Ermüdung
0%
Rolle Scout
Gehalt 27.2K p/W
Vertrag 14.03.2030

Leistung

Verhalten Gut
Trainingseffektivität
15%
Spielerentwicklung
35%
Verletzungsprävention
20%
Taktische Umsetzung
30%

Letzte Ereignisse

Spieler begutachtet 7T her
Nahm an einer Scouting-Besprechung teil 7T her
Spieler begutachtet 7T her
Spieler begutachtet 7T her
Nahm an einer Scouting-Besprechung teil 14T her
Spieler begutachtet 14T her
Nahm an einer Scouting-Besprechung teil 21T her
Spieler begutachtet 21T her

Aktuell beobachtet

208
Spieler Verein Status Fähigkeit Vertrauen Beobachtet Zuletzt beobachtet Letzte Stimme
Juan Cekalovich Gimnasia y Esgrima Aktiv 99 / 83 40% 1 27.03.2027 -
Franco Caro Defensores Aktiv 99 / 85 40% 1 27.03.2027 -
Enrique Almeida Cerro Largo Aktiv 107 / 82 40% 1 25.03.2027 -
Yuval Kretzo Maccabi Petach Tikva Aktiv 58 / 63 40% 1 25.03.2027 -
Pablo Suárez Rentistas Aktiv 78 / 95 40% 2 24.03.2027 -
Felipe Tempone Independiente Aktiv 91 / 71 40% 1 24.03.2027 -
Wonderson Yakubu Hapoel Raanana Aktiv 89 / 98 40% 1 22.03.2027 -
Rodrigo Fernández Alvarado Aktiv 92 / 105 40% 1 22.03.2027 -
David Barbosa Tigres Aktiv 91 / 92 40% 1 21.03.2027 -
Juan Cruz Zurbriggen San Telmo Aktiv 90 / 118 40% 1 21.03.2027 -
Shae Cahill Atletico Bucaramanga Aktiv 104 / 94 40% 1 09.03.2027 -
Oliver Middleton Auckland FC Aktiv 74 / 75 40% 1 09.03.2027 -
Vitinho River Plate Aktiv 101 / 72 40% 1 08.03.2027 -
Matías Escobar River Plate Aktiv 68 / 76 40% 1 08.03.2027 -
Dilmer Tobar Real Cartagena Aktiv 108 / 93 40% 1 07.03.2027 -
Santino Sciacqua Colón Aktiv 112 / 105 40% 1 07.03.2027 -
Mateo Rodríguez Estudiantes Aktiv 76 / 97 40% 4 04.03.2027 -
Jesús Portillo Unión de Santa Fe Aktiv 97 / 101 40% 1 04.03.2027 -
Sergio Aguilera Banfield Aktiv 107 / 93 40% 3 27.02.2027 -
Alejandro Torres Deportivo Lara Aktiv 94 / 97 40% 1 27.02.2027 -
Luciano Ango Huracán Aktiv 89 / 101 40% 1 26.02.2027 -
Gino Olguín Ferro Carril Oeste Aktiv 129 / 95 40% 1 26.02.2027 -
Jaiden Kucharski Perth Glory Aktiv 101 / 97 40% 2 24.02.2027 -
Zane Helweh Macarthur FC Aktiv 75 / 102 40% 1 24.02.2027 -
José Cabrera Union Magdalena Aktiv 76 / 90 40% 2 23.02.2027 -
Axel Batista Quilmes Aktiv 113 / 121 40% 1 23.02.2027 -
Víctor Machado Independiente Rivadavia Aktiv 80 / 75 40% 2 20.02.2027 -
Luciano Paredes Maipú Aktiv 103 / 91 40% 2 20.02.2027 -
Felipe Ospina Deportes Tolima Aktiv 77 / 109 40% 1 17.02.2027 -
Gastón Mansilla Maipú Aktiv 128 / 108 40% 1 17.02.2027 -
Fin Conchie Wellington Phoenix Aktiv 91 / 84 40% 2 14.02.2027 -
Jaiden Celestine-Charles Ayacucho Aktiv 54 / 66 40% 1 14.02.2027 -
Leonardo González Colegiales Aktiv 120 / 93 40% 1 13.02.2027 -
Gabriel Rocha Argentinos Juniors Aktiv 103 / 107 40% 1 13.02.2027 -
Ricardo Solbes Unión de Santa Fe Aktiv 118 / 116 40% 1 10.02.2027 -
Agustín Báez San Telmo Aktiv 75 / 97 40% 1 09.02.2027 -
Máximo Magnoli Ferro Carril Oeste Aktiv 99 / 86 40% 1 05.02.2027 -
Thiago Chamorro Chaco For Ever Aktiv 67 / 74 40% 1 04.02.2027 -
Cristian Ibáñez San Martín Aktiv 106 / 99 40% 1 04.02.2027 -
Nahuel Sena Cerro Aktiv 105 / 114 40% 1 02.02.2027 -
Bautista Maillier Colón Aktiv 88 / 113 40% 1 02.02.2027 -
Juan Felipe Holguín Envigado Aktiv 82 / 80 40% 3 31.01.2027 -
Facundo Parada Racing Aktiv 105 / 106 40% 1 31.01.2027 -
Santino Colangelo Almagro Aktiv 86 / 94 40% 1 29.01.2027 -
Blas Benedetto Newell's Old Boys Aktiv 101 / 94 40% 1 29.01.2027 -
Lucas Silva Estudiantes Aktiv 76 / 76 40% 1 28.01.2027 -
Guillermo Oroño Atenas Aktiv 96 / 117 40% 1 28.01.2027 -
Tiago Gaona Belgrano Aktiv 84 / 101 40% 1 28.01.2027 -
Martín Coria Maipú Aktiv 67 / 110 40% 1 28.01.2027 -
Jai Singh Waitakere United Aktiv 69 / 80 40% 2 27.01.2027 -
Matías Ledesma San Telmo Aktiv 117 / 97 40% 1 27.01.2027 -
Winston Fenton Southern United Aktiv 68 / 74 40% 2 24.01.2027 -
Brandon López All Boys Aktiv 87 / 124 40% 1 24.01.2027 -
Julián Vitale Almagro Aktiv 120 / 127 40% 1 23.01.2027 -
Iván González Morón Aktiv 89 / 96 40% 1 23.01.2027 -
Gonzalo Asis Almagro Aktiv 111 / 94 40% 2 22.01.2027 -
Diego Núñez Colon Aktiv 118 / 90 40% 1 22.01.2027 -
Tomás López River Plate Aktiv 103 / 79 40% 1 21.01.2027 -
Peter Grance Martínez San Miguel Aktiv 83 / 103 40% 1 21.01.2027 -
Deklan Barbarouses Hawke's Bay United Aktiv 81 / 75 40% 2 19.01.2027 -
Lucas Barrientos Los Andes Aktiv 102 / 111 40% 1 19.01.2027 -
Erico Cuello Defensor Sporting Aktiv 81 / 97 40% 1 17.01.2027 -
Enzo Castillo Liverpool Montevideo Aktiv 99 / 111 40% 1 17.01.2027 -
Jesus Duque La Equidad Aktiv 84 / 74 40% 1 16.01.2027 -
Facundo Maldonado Gimnasia y Esgrima Aktiv 112 / 84 40% 1 16.01.2027 -
Nahuel Tejada San Martín SJ Aktiv 81 / 112 40% 1 14.01.2027 -
Regont Murati Auckland City Aktiv 80 / 82 40% 1 13.01.2027 -
Tomás Núñez Estudiantes Aktiv 81 / 91 40% 1 13.01.2027 -
Josaia Raju Nadroga Aktiv 46 / 64 41% 1 11.01.2027 -
Abongwe Newman Waitakere United Aktiv 84 / 66 40% 2 09.01.2027 -
Vittorio Magno Atenas Aktiv 91 / 84 40% 1 09.01.2027 -
Kleber Díaz Union Magdalena Aktiv 97 / 71 40% 1 08.01.2027 -
Laureano Paez Colón Aktiv 96 / 89 40% 1 08.01.2027 -
Lucas Soto Colo-Colo Aktiv 100 / 116 40% 1 06.01.2027 -
Axel Prado Cerro Largo Aktiv 78 / 91 40% 1 06.01.2027 -
Pablo da Silveira Cerro Aktiv 80 / 102 40% 1 04.01.2027 -
Damián London Argentinos Juniors Aktiv 76 / 105 40% 1 03.01.2027 -
Kevin Pérez Aragua Aktiv 74 / 61 40% 1 03.01.2027 -
Juan Rodríguez Wanderers Aktiv 98 / 106 40% 1 31.12.2026 -
Mateo Zárate Barracas Central Aktiv 59 / 78 40% 1 31.12.2026 -
Valentín Villarreal Patronato Aktiv 79 / 111 40% 1 28.12.2026 -
Sebastián Flores Ferro Carril Oeste Aktiv 109 / 90 40% 1 28.12.2026 -
Mateo Pereyra Tacuarembo Aktiv 101 / 109 40% 1 27.12.2026 -
Lautaro Ávila Racing Aktiv 88 / 112 40% 1 27.12.2026 -
Santiago Romero Estudiantes Aktiv 70 / 80 40% 1 27.12.2026 -
Mattia Ciancaglini Almagro Aktiv 114 / 91 40% 1 26.12.2026 -
Augusto Bottini Almirante Brown Aktiv 90 / 106 40% 1 26.12.2026 -
Benjamín Tapia San Marcos de Arica Aktiv 92 / 89 40% 1 25.12.2026 -
Oliver Nelson Southern United Aktiv 82 / 85 40% 1 25.12.2026 -
Valentín Dutruel Racing Aktiv 67 / 97 40% 2 24.12.2026 -
Tobías Pantoja Central Norte Aktiv 91 / 100 40% 1 24.12.2026 -
Agustín Pérez Juventud Aktiv 95 / 111 40% 1 24.12.2026 -
Juan Monteagudo Defensores Aktiv 109 / 86 40% 1 24.12.2026 -
Lautaro Gaitán Colón Aktiv 115 / 87 40% 1 23.12.2026 -
Mauro Peinipil Colón Aktiv 121 / 112 40% 1 23.12.2026 -
Mateo Ostachi Alvarado Aktiv 86 / 107 40% 1 22.12.2026 -
Sabino González Sarmiento Aktiv 68 / 88 40% 1 21.12.2026 -
Hernán Sanabria Barracas Central Aktiv 103 / 107 40% 1 21.12.2026 -
Roberto Vanegas La Equidad Aktiv 112 / 98 40% 1 21.12.2026 -
Julián Alcar Banfield Aktiv 84 / 71 40% 1 18.12.2026 -
Tomás Amato Defensores Aktiv 58 / 95 40% 1 17.12.2026 -
Alejo Clementi Cretton Sarmiento Aktiv 95 / 82 40% 1 16.12.2026 -
Rodrigo Arnay Güemes Aktiv 84 / 90 40% 1 15.12.2026 -
Miguel Aguirre Deportivo Pereira Aktiv 111 / 112 40% 1 15.12.2026 -
Orlando Thorpe Auckland City Aktiv 70 / 77 40% 1 14.12.2026 -
Martín González San Telmo Aktiv 82 / 101 40% 1 12.12.2026 -
Rodrigo Moreira Atlanta Aktiv 106 / 100 40% 1 12.12.2026 -
Kayne Razmovski Southern United Aktiv 60 / 64 40% 2 10.12.2026 -
Franco Casuriaga Cerrito Aktiv 79 / 118 40% 1 10.12.2026 -
Tomás Ganga Defensores Unidos Aktiv 88 / 104 40% 1 09.12.2026 -
Christian Bracco Team Wellington Aktiv 66 / 69 40% 1 09.12.2026 -
James Durrington Brisbane Roar Aktiv 90 / 69 40% 2 07.12.2026 -
Richard Nkomo Newcastle Jets Aktiv 61 / 66 40% 1 07.12.2026 -
Lautaro César Talleres Aktiv 67 / 105 40% 1 03.12.2026 -
Francisco Perruzzi Aldosivi Aktiv 95 / 123 40% 1 01.12.2026 -
Luciano Pacco Patronato Aktiv 103 / 116 40% 1 01.12.2026 -
James Nieuwenhuizen Melbourne City Aktiv 86 / 72 40% 2 28.11.2026 -
Maximiliano González Morón Aktiv 108 / 126 40% 1 25.11.2026 -
Tomás Chetelain Estudiantes Aktiv 90 / 107 40% 1 24.11.2026 -
Gian Piaggio Colón Aktiv 70 / 103 40% 1 24.11.2026 -
Nicolás Fernández Tristán Suárez Aktiv 97 / 115 40% 3 17.11.2026 -
Maximiliano Puig Barracas Central Aktiv 122 / 117 40% 1 17.11.2026 -
Mauricio Cardillo San Lorenzo Aktiv 102 / 106 40% 1 17.11.2026 -
Martín García Aldosivi Aktiv 70 / 109 40% 1 15.11.2026 -
Franco Sivetti Gimnasia y Tiro Aktiv 88 / 116 40% 1 14.11.2026 -
Alex Baigorria Defensores Unidos Aktiv 71 / 111 40% 1 14.11.2026 -
Ramiro Paunero Atlético Tucumán Aktiv 86 / 114 40% 1 12.11.2026 -
Tomás Bais Lanús Aktiv 83 / 102 40% 1 10.11.2026 -
Jerónimo Gutiérrez Independiente Rivadavia Aktiv 74 / 111 40% 2 08.11.2026 -
Matías Caballero Patronato Aktiv 107 / 96 40% 2 08.11.2026 -
Leandro Quiroz Godoy Cruz Aktiv 98 / 125 40% 1 08.11.2026 -
Gustavo Dionisi Guarani Aktiv 80 / 89 40% 3 07.11.2026 -
Ethan Cox Adelaide United Aktiv 86 / 77 40% 2 07.11.2026 -
Dayron Mosquera Once Caldas Aktiv 93 / 88 40% 1 07.11.2026 -
Yhojan Díaz Artigas Aktiv 85 / 91 40% 1 07.11.2026 -
Cristhofer Mesías Universidad de Concepcion Aktiv 85 / 104 40% 1 06.11.2026 -
Luis Guevara Real Cartagena Aktiv 79 / 104 40% 1 04.11.2026 -
Hernán Domínguez Nacional Aktiv 99 / 94 40% 1 02.11.2026 -
Jeremías Blanco Los Andes Aktiv 103 / 84 40% 2 01.11.2026 -
Jeifer Nontoa Banfield Aktiv 89 / 69 40% 1 28.10.2026 -
César Urpín Zamora Aktiv 84 / 92 40% 1 28.10.2026 -
Wataru Kamijo Sydney FC Aktiv 69 / 83 40% 1 28.10.2026 -
Octavio Pereira Artigas Aktiv 97 / 92 40% 1 25.10.2026 -
Enzo Reynoso Defensa y Justicia Aktiv 92 / 94 40% 1 25.10.2026 -
Thiago Cano Banfield Aktiv 89 / 98 40% 3 24.10.2026 -
Alen Boschi Almirante Brown Aktiv 98 / 78 40% 1 23.10.2026 -
Kavian Rahmani Melbourne City Aktiv 69 / 97 40% 1 20.10.2026 -
Ezequiel Bulacio Morón Aktiv 100 / 70 40% 1 19.10.2026 -
Tomás Soto Envigado Aktiv 93 / 99 40% 1 19.10.2026 -
José Móntes Patriotas Aktiv 108 / 93 40% 1 17.10.2026 -
Gonzalo de Mello Liverpool Montevideo Aktiv 93 / 95 40% 1 17.10.2026 -
Alejo Sperdutti Godoy Cruz Aktiv 93 / 78 40% 1 15.10.2026 -
Gonzalo Revillod Union Espanola Aktiv 72 / 74 40% 1 14.10.2026 -
Gabriel Reta Nueva Chicago Aktiv 90 / 82 40% 1 14.10.2026 -
Cristian González Cerrito Aktiv 102 / 103 40% 1 13.10.2026 -
Felipe Coronel All Boys Aktiv 90 / 87 40% 1 13.10.2026 -
Ciro Thompson Newell's Old Boys Aktiv 64 / 90 40% 1 13.10.2026 -
Bruno Rizzi Estudiantes Aktiv 65 / 103 40% 1 13.10.2026 -
Tadeo Polli San Martín Aktiv 110 / 92 40% 1 11.10.2026 -
Bruno Cambilla Barracas Central Aktiv 100 / 93 40% 1 10.10.2026 -
Lautaro Espeche Instituto Aktiv 65 / 85 40% 1 09.10.2026 -
Abdumavlon Abdujalilov Bunyodkor Aktiv 86 / 102 40% 1 09.10.2026 -
Guido Pache Racing Aktiv 100 / 81 40% 1 08.10.2026 -
Luigi Cendales Godoy Cruz Aktiv 109 / 110 40% 1 07.10.2026 -
Tomás Andreo San Lorenzo Aktiv 94 / 88 40% 1 07.10.2026 -
Franco Castorani Rosario Central Aktiv 102 / 82 40% 1 07.10.2026 -
Lautaro García Deportivo Riestra Aktiv 64 / 82 40% 1 07.10.2026 -
Lucas Mihovilcevich Arsenal Aktiv 92 / 88 40% 1 06.10.2026 -
George Micheal Team Wellington Aktiv 69 / 67 40% 2 26.09.2026 -
Ignacio Abarza Huracán Aktiv 63 / 90 40% 1 26.09.2026 -
Luca Fernández Barracas Central Aktiv 92 / 72 40% 1 22.09.2026 -
Diego Bolaños Argentinos Juniors Aktiv 83 / 66 40% 1 21.09.2026 -
Juan Ignacio Berasi Colón Aktiv 99 / 94 40% 2 20.09.2026 -
Kevin Lezcano Guarani Aktiv 57 / 93 40% 1 20.09.2026 -
Hugo Castillo 12 de Octubre Aktiv 65 / 91 40% 2 19.09.2026 -
Mateo Raschia Unión de Santa Fe Aktiv 90 / 99 40% 2 16.09.2026 -
Santiago Asprilla Envigado Aktiv 65 / 109 40% 1 15.09.2026 -
Tomás Martínez Racing Aktiv 62 / 86 40% 1 12.09.2026 -
Thiago Perruisset Boca Juniors Aktiv 78 / 93 40% 2 11.09.2026 -
Nahuel González Alvarado Aktiv 108 / 95 40% 1 08.09.2026 -
Jorge Espejo Universidad de Concepcion Aktiv 108 / 89 40% 1 08.09.2026 -
Emiliano Valenzuela Godoy Cruz Aktiv 95 / 118 40% 1 08.09.2026 -
Mathías Bernatene Liverpool Montevideo Aktiv 114 / 87 40% 1 05.09.2026 -
Jorge Martínez Deportivo Pereira Aktiv 54 / 88 40% 1 05.09.2026 -
Mauro Villar Huracán Aktiv 99 / 111 40% 1 04.09.2026 -
Ulises Echevarría Sarmiento Aktiv 104 / 82 40% 1 04.09.2026 -
Gastón Unrein Mitre Aktiv 102 / 70 40% 1 03.09.2026 -
Jeyson Rojas Colo-Colo Aktiv 101 / 99 40% 1 02.09.2026 -
Santiago Chávez San Martín Aktiv 70 / 87 40% 1 02.09.2026 -
Adrián Csenterics Estudiantes de Merida Aktiv 64 / 95 40% 2 31.08.2026 -
Julián Marchio San Martín SJ Aktiv 107 / 86 40% 1 29.08.2026 -
Brandon Gómez San Telmo Aktiv 85 / 93 40% 2 27.08.2026 -
Davi Barbosa Vitória Aktiv 104 / 82 40% 1 27.08.2026 -
Lorenzo Delgado Atlético Tucumán Aktiv 99 / 107 40% 1 21.08.2026 -
Luis Falcao Universitario Popayan Aktiv 90 / 72 40% 1 21.08.2026 -
Emiliano Zacca Deportivo Riestra Aktiv 83 / 98 40% 2 19.08.2026 -
Vicente Lagos Santiago Wanderers Aktiv 74 / 72 40% 1 19.08.2026 -
Ignacio Soto Ferro Carril Oeste Aktiv 62 / 78 40% 1 18.08.2026 -
Juan Esteban Gómez Atletico Nacional Aktiv 89 / 85 40% 1 17.08.2026 -
Fernando Abarzúa San Luis Aktiv 86 / 68 40% 1 14.08.2026 -
Joaquín Santos Almirante Brown Aktiv 95 / 87 40% 1 13.08.2026 -
Emanuel Bonda Argentinos Juniors Aktiv 97 / 110 40% 1 07.08.2026 -
Matías Zorzoli Newell's Old Boys Aktiv 55 / 77 40% 1 04.08.2026 -
Kevin Soria Quilmes Aktiv 88 / 66 40% 1 04.08.2026 -
Giuliano Pierini San Lorenzo Aktiv 89 / 93 40% 1 03.08.2026 -
Genaro Rossi San Martín SJ Aktiv 112 / 94 40% 1 03.08.2026 -
Axel Pérez Cerrito Aktiv 103 / 95 40% 1 01.08.2026 -
Diego Opazo Santiago Wanderers Aktiv 58 / 107 40% 1 01.08.2026 -